Terminal Aerodrome Forecast
Issued by NWS Flagstaff, AZ

Home | Current Version | Previous Version | Text Only | Print | Product List | Glossary On
Versions: 1 2 3 4 5 6 7 8 9 10 11 12 13 14 15 16 17 18 19 20 21
000
FTUS45 KFGZ 251732
TAFINW
TAF
KINW 251732Z 2518/2618 VRB06KT P6SM VCSH BKN060 OVC090
      TEMPO 2518/2520 VRB15G25KT 6SM -SHRA OVC060
     FM252000 26011G20KT P6SM BKN070 BKN090
     FM260300 22008KT P6SM SCT070 BKN110=

USA.gov is the U.S. government's official web portal to all federal, state and local government web resources and services.